Location: York
(31.8935°S, 116.7682°E)
Time: 05:44:27
(UTC+08:00)

Altair - Visible Passes

Search period start: 14 June 2021 00:00
Search period end: 24 June 2021 00:00
Orbit: 1501 x 1683 km, 47.2° (Epoch: 12 June)

Date Brightness Start Highest point End Pass type
(mag) Time Alt. Az. Time Alt. Az. Time Alt. Az.
14 Jun 8.7 03:21:26 29° SE 03:21:26 29° SE 03:25:34 10° SE visible
14 Jun 8.3 05:19:28 27° SW 05:22:37 32° S 05:30:48 10° SE visible
15 Jun 9.1 02:57:44 22° SE 02:57:44 22° SE 03:00:25 10° SE visible
15 Jun 8.2 04:55:45 32° SSW 04:57:15 33° S 05:05:30 10° SE visible
16 Jun 9.5 02:33:59 15° SE 02:33:59 15° SE 02:35:15 10° SE visible
16 Jun 8.2 04:32:01 34° S 04:32:01 34° S 04:40:16 10° SE visible
16 Jun 8.4 06:30:35 10° SW 06:39:05 35° SSE 06:47:22 10° ESE visible
17 Jun 8.4 04:08:15 33° S 04:08:15 33° S 04:15:01 10° SE visible
17 Jun 8.4 06:06:16 13° SW 06:13:45 34° SSE 06:21:58 10° ESE visible
18 Jun 8.6 03:44:29 29° SSE 03:44:29 29° SSE 03:49:47 10° SE visible
18 Jun 8.4 05:42:30 18° SW 05:48:24 33° S 05:56:36 10° ESE visible
19 Jun 8.9 03:20:41 24° SSE 03:20:41 24° SSE 03:24:34 10° SE visible
19 Jun 8.4 05:18:42 23° SSW 05:23:03 33° S 05:31:13 10° ESE visible
20 Jun 9.3 02:56:54 19° SE 02:56:54 19° SE 02:59:21 10° SE visible
20 Jun 8.4 04:54:55 28° SSW 04:57:41 32° S 05:05:50 10° ESE visible
21 Jun 9.6 02:33:06 14° SE 02:33:06 14° SE 02:34:09 10° SE visible
21 Jun 8.4 04:31:07 31° S 04:32:19 32° S 04:40:28 10° ESE visible
21 Jun 7.9 06:29:41 10° SW 06:38:58 54° SSE 06:47:57 10° ENE visible
22 Jun 8.5 04:07:20 31° S 04:07:20 31° S 04:15:06 10° ESE visible
22 Jun 8.0 06:05:21 13° SW 06:13:43 51° SSE 06:22:38 10° ENE visible
23 Jun 8.7 03:43:33 29° SSE 03:43:33 29° SSE 03:49:46 10° ESE visible
23 Jun 8.0 05:41:35 19° SW 05:48:27 48° SSE 05:57:19 10° E visible
